CRW (WAAS/PRN 135)

Last updated on Thu Aug 01 2019 04:15:11 GMT+0000 (Coordinated Universal Time)

1 28884U 05041A 19212.41368851 .00000071 00000-0 00000+0 0 9998 2 28884 0.0040 275.8521 0001962 241.8363 166.9358 1.00273000 50423
UTC large
Height (km)
Speed (km/s)
/
Latitude / Longitude
Inclination (degrees)
Orbital Period (minutes)
Azimuth
Elevation
Range (km)
Doppler Factor

Next 0 passes for location: London (51.5072 / 0.1276)

Sorry there are no passes over London.
CRW (WAAS/PRN 135)